CW7529 Weather Reports


time (UTC)temp
C
wind
direction
speed
KPH
gust
KPH
rain 1hr
cm
rain 24hr
cm
rain mn
cm
humidity
%
barometer
mb
20260504201952 27 254 11.3 25.7 0.00 0.00 0.00 28 1000.3
20260504201447 28 289 8.0 22.5 0.00 0.00 0.00 29 1000.3
20260504201219 27 267 19.3 27.4 0.00 0.00 0.00 26 1000.2
20260504200453 27 273 14.5 27.4 0.00 0.00 0.00 29 1000.5
20260504195951 27 295 8.0 22.5 0.00 0.00 0.00 31 1000.4
20260504195447 27 307 12.9 27.4 0.00 0.00 0.00 30 1000.4
20260504194955 27 276 3.2 27.4 0.00 0.00 0.00 32 1000.5
20260504194445 27 290 8.0 29.0 0.00 0.00 0.00 30 1000.4
20260504193942 27 243 9.7 29.0 0.00 0.00 0.00 30 1000.4
20260504193439 27 225 19.3 27.4 0.00 0.00 0.00 31 1000.6
20260504193214 27 277 16.1 27.4 0.00 0.00 0.00 32 1000.5
20260504192439 27 284 9.7 29.0 0.00 0.00 0.00 32 1000.4
20260504191942 27 304 9.7 30.6 0.00 0.00 0.00 32 1000.6
20260504191444 26 308 19.3 32.2 0.00 0.00 0.00 33 1000.5
20260504190942 26 295 11.3 32.2 0.00 0.00 0.00 33 1000.4
20260504190438 26 303 9.7 27.4 0.00 0.00 0.00 35 1000.5
20260504190217 27 310 12.9 25.7 0.00 0.00 0.00 33 1000.2
20260504185659 26 192 3.2 25.7 0.00 0.00 0.00 35 1000.5
20260504184942 26 250 14.5 25.7 0.00 0.00 0.00 33 1000.6
20260504184445 26 295 12.9 29.0 0.00 0.00 0.00 34 1000.7
20260504184205 27 255 12.9 29.0 0.00 0.00 0.00 33 1000.5
20260504183440 27 244 16.1 29.0 0.00 0.00 0.00 32 1000.5
20260504183435 27 224 22.5 27.4 0.00 0.00 0.00 33 1000.6
20260504182438 27 297 6.4 24.1 0.00 0.00 0.00 36 1000.7
20260504181941 27 274 3.2 20.9 0.00 0.00 0.00 38 1000.6
20260504181444 26 253 8.0 24.1 0.00 0.00 0.00 35 1000.4
20260504181208 26 240 8.0 24.1 0.00 0.00 0.00 35 1000.5
20260504180437 26 278 9.7 32.2 0.00 0.00 0.00 34 1000.5
20260504175947 26 300 9.7 32.2 0.00 0.00 0.00 35 1000.5
20260504175438 26 255 12.9 27.4 0.00 0.00 0.00 34 1000.6
20260504174941 27 256 6.4 27.4 0.00 0.00 0.00 35 1000.8
20260504174444 26 268 6.4 27.4 0.00 0.00 0.00 37 1000.6
20260504173941 27 256 11.3 20.9 0.00 0.00 0.00 34 1000.5
20260504173438 26 222 12.9 25.7 0.00 0.00 0.00 35 1000.6
20260504172950 26 264 8.0 27.4 0.00 0.00 0.00 39 1000.7
20260504172442 26 241 14.5 27.4 0.00 0.00 0.00 37 1000.8
20260504172437 26 276 6.4 22.5 0.00 0.00 0.00 38 1000.7
20260504171443 25 262 12.9 22.5 0.00 0.00 0.00 39 1000.7
20260504170940 26 250 6.4 22.5 0.00 0.00 0.00 42 1000.7
20260504170437 26 221 11.3 25.7 0.00 0.00 0.00 39 1000.8
20260504150936 21 236 9.7 14.5 0.00 0.00 0.00 53 1001.2
20260504150436 21 248 12.9 14.5 0.00 0.00 0.00 54 1001.3
20260504140936 17 250 4.8 12.9 0.00 0.00 0.00 64 1001.9
20260504140658 17 275 4.8 9.7 0.00 0.00 0.00 63 1001.9
20260504130436 13 225 3.2 8.0 0.00 0.00 0.00 70 1001.9
20260504110435 8 130 0.0 3.2 0.00 0.00 0.00 79 1002.8
20260504110201 8 147 0.0 3.2 0.00 0.00 0.00 78 1002.9
20260504090129 10 212 1.6 6.4 0.00 0.00 0.00 69 1004.2
20260504081914 9 225 3.2 4.8 0.00 0.00 0.00 74 1004.6
20260504081414 9 237 3.2 4.8 0.00 0.00 0.00 74 1004.5
20260504080909 9 226 3.2 4.8 0.00 0.00 0.00 74 1004.7
20260504080412 9 224 3.2 4.8 0.00 0.00 0.00 74 1004.8
20260504050643 12 212 1.6 3.2 0.00 0.00 0.00 57 1006.8
20260504045912 12 197 3.2 3.2 0.00 0.00 0.00 56 1006.6
20260504045409 12 233 3.2 3.2 0.00 0.00 0.00 56 1006.6
20260504044918 12 233 3.2 3.2 0.00 0.00 0.00 55 1006.9
20260504044411 12 229 3.2 3.2 0.00 0.00 0.00 55 1006.9
20260504043912 12 272 1.6 3.2 0.00 0.00 0.00 56 1006.9
20260504043418 11 250 1.6 3.2 0.00 0.00 0.00 58 1007.1
20260504042912 11 236 0.0 3.2 0.00 0.00 0.00 61 1007.1
20260504042408 11 53 0.0 0.0 0.00 0.00 0.00 64 1007.3
20260504041918 11 53 0.0 3.2 0.00 0.00 0.00 62 1007.2
20260504041415 12 235 0.0 3.2 0.00 0.00 0.00 59 1007.1
20260504040913 12 239 1.6 4.8 0.00 0.00 0.00 57 1007.2
20260504040409 13 205 0.0 4.8 0.00 0.00 0.00 53 1007.3
20260504035918 13 180 4.8 4.8 0.00 0.00 0.00 53 1007.3
20260504035409 13 130 0.0 3.2 0.00 0.00 0.00 54 1007.4
20260504035127 13 134 0.0 3.2 0.00 0.00 0.00 52 1007.6
20260504034406 13 186 1.6 1.6 0.00 0.00 0.00 50 1007.6
20260504033908 13 135 0.0 1.6 0.00 0.00 0.00 48 1007.6
20260504033347 13 235 0.0 1.6 0.00 0.00 0.00 47 1007.8
20260504032853 13 215 0.0 1.6 0.00 0.00 0.00 48 1007.7
20260504032348 12 38 0.0 0.0 0.00 0.00 0.00 49 1007.9
20260504031835 13 322 0.0 1.6 0.00 0.00 0.00 47 1008.0
20260504031340 13 322 0.0 3.2 0.00 0.00 0.00 47 1008.0
20260504031320 13 198 0.0 3.2 0.00 0.00 0.00 45 1007.9
20260504030321 13 309 0.0 0.0 0.00 0.00 0.00 47 1008.1
20260504025831 14 193 0.0 1.6 0.00 0.00 0.00 46 1008.0
20260504025321 15 147 0.0 1.6 0.00 0.00 0.00 44 1008.1
20260504024825 15 219 0.0 1.6 0.00 0.00 0.00 42 1007.9
20260504024321 15 178 1.6 3.2 0.00 0.00 0.00 42 1008.0
20260504023830 15 173 0.0 3.2 0.00 0.00 0.00 44 1008.1
20260504023322 15 261 0.0 3.2 0.00 0.00 0.00 43 1007.9
20260504023048 15 339 0.0 3.2 0.00 0.00 0.00 44 1007.7
20260504022323 15 219 0.0 3.2 0.00 0.00 0.00 44 1007.9
20260504021825 14 139 0.0 1.6 0.00 0.00 0.00 46 1007.8
20260504021548 14 44 0.0 3.2 0.00 0.00 0.00 45 1007.9
20260504020825 15 230 0.0 4.8 0.00 0.00 0.00 43 1007.8
20260504020322 16 214 1.6 4.8 0.00 0.00 0.00 42 1007.8
20260504015831 15 229 3.2 3.2 0.00 0.00 0.00 42 1007.7
20260504015543 16 230 0.0 3.2 0.00 0.00 0.00 40 1007.7
20260504015048 16 261 1.6 3.2 0.00 0.00 0.00 40 1007.8
20260504014321 16 0 0.0 1.6 0.00 0.00 0.00 39 1007.9
20260504013822 16 22 0.0 1.6 0.00 0.00 0.00 39 1007.7
20260504013318 16 352 0.0 3.2 0.00 0.00 0.00 38 1007.7
20260504012821 16 352 0.0 3.2 0.00 0.00 0.00 38 1007.8
20260504012318 16 298 0.0 1.6 0.00 0.00 0.00 39 1007.7
20260504011827 17 309 0.0 0.0 0.00 0.00 0.00 36 1007.5
20260504011324 18 309 0.0 1.6 0.00 0.00 0.00 35 1007.8
20260504010819 18 322 0.0 1.6 0.00 0.00 0.00 34 1007.8
20260504010318 19 269 0.0 3.2 0.00 0.00 0.00 33 1007.8
20260504005823 20 299 0.0 3.2 0.00 0.00 0.00 32 1007.8
20260504005318 20 315 3.2 4.8 0.00 0.00 0.00 32 1007.7
20260504004818 21 245 0.0 6.4 0.00 0.00 0.00 30 1007.8
20260504004318 22 292 3.2 8.0 0.00 0.00 0.00 29 1007.8
20260504003824 22 304 0.0 8.0 0.00 0.00 0.00 29 1007.7
20260504003317 22 337 0.0 6.4 0.00 0.00 0.00 28 1007.6
20260504002817 22 272 3.2 11.3 0.00 0.00 0.00 27 1007.8
20260504002318 22 296 3.2 14.5 0.00 0.00 0.00 28 1007.5
20260504001818 22 299 8.0 14.5 0.00 0.00 0.00 26 1007.6
20260504001323 23 325 0.0 9.7 0.00 0.00 0.00 30 1007.9
20260504001037 23 321 4.8 9.7 0.00 0.00 0.00 29 1007.7
20260504000318 23 292 4.8 8.0 0.00 0.00 0.00 25 1007.7
20260503235824 23 324 3.2 9.7 0.00 0.00 0.00 27 1007.8
20260503235318 23 291 0.0 12.9 0.00 0.00 0.00 27 1007.7
20260503234817 23 300 6.4 14.5 0.00 0.00 0.00 27 1007.9
20260503234317 23 309 9.7 14.5 0.00 0.00 0.00 28 1008.0
20260503233818 23 323 9.7 14.5 0.00 0.00 0.00 27 1007.8
20260503233751 23 322 8.0 12.9 0.00 0.00 0.00 26 1007.9
20260503233416 23 322 11.3 12.9 0.00 0.00 0.00 28 1007.8
20260503232544 23 338 4.8 16.1 0.00 0.00 0.00 28 1007.9
20260503231823 23 324 8.0 17.7 0.00 0.00 0.00 29 1007.9
20260503231812 23 329 6.4 17.7 0.00 0.00 0.00 26 1007.9
20260503230817 23 316 8.0 16.1 0.00 0.00 0.00 26 1008.1
20260503230317 24 5 6.4 14.5 0.00 0.00 0.00 26 1007.8
20260503225818 23 305 6.4 20.9 0.00 0.00 0.00 28 1008.0
20260503225323 23 292 8.0 20.9 0.00 0.00 0.00 29 1007.9
20260503224818 23 242 4.8 14.5 0.00 0.00 0.00 28 1008.0
20260503224800 23 287 6.4 20.9 0.00 0.00 0.00 28 1007.9
20260503223824 23 231 9.7 24.1 0.00 0.00 0.00 27 1007.8
20260503223318 23 224 12.9 24.1 0.00 0.00 0.00 28 1007.9
20260503222818 23 341 4.8 20.9 0.00 0.00 0.00 27 1007.8
20260503222317 23 332 11.3 20.9 0.00 0.00 0.00 28 1008.1
20260503221818 23 296 9.7 22.5 0.00 0.00 0.00 28 1008.0
20260503221323 23 231 9.7 22.5 0.00 0.00 0.00 30 1007.9
20260503220817 23 284 6.4 19.3 0.00 0.00 0.00 32 1007.9
20260503220318 23 350 6.4 14.5 0.00 0.00 0.00 28 1008.3
20260503215823 23 328 6.4 12.9 0.00 0.00 0.00 29 1008.2
20260503215318 23 302 4.8 20.9 0.00 0.00 0.00 31 1008.0
20260503214818 23 338 11.3 20.9 0.00 0.00 0.00 27 1008.1
20260503214318 23 295 6.4 17.7 0.00 0.00 0.00 30 1008.0
20260503213818 23 329 8.0 19.3 0.00 0.00 0.00 26 1008.0
20260503213324 24 340 6.4 19.3 0.00 0.00 0.00 31 1008.2
20260503213045 24 329 12.9 19.3 0.00 0.00 0.00 28 1008.1
20260503212318 24 280 8.0 20.9 0.00 0.00 0.00 30 1008.0
20260503211829 24 267 8.0 20.9 0.00 0.00 0.00 29 1008.0
20260503211317 24 291 14.5 16.1 0.00 0.00 0.00 30 1008.1
20260503210821 25 212 4.8 24.1 0.00 0.00 0.00 28 1008.1
20260503210319 23 288 8.0 24.1 0.00 0.00 0.00 31 1008.1
20260503205818 24 309 4.8 22.5 0.00 0.00 0.00 33 1008.4
20260503205542 23 295 16.1 22.5 0.00 0.00 0.00 28 1008.5
20260503204818 23 340 8.0 20.9 0.00 0.00 0.00 30 1008.5
20260503204317 23 310 8.0 20.9 0.00 0.00 0.00 31 1008.4
20260503203823 24 354 12.9 22.5 0.00 0.00 0.00 30 1008.5
20260503203318 24 241 14.5 33.8 0.00 0.00 0.00 29 1008.7
20260503203042 23 269 16.1 30.6 0.00 0.00 0.00 31 1008.6
20260503202919 23 312 17.7 33.8 0.00 0.00 0.00 30 1008.6